Helicity
53 37 33 17 47 70 91 73 86 167 55 48 95 60 31 41 48 60 43 37 30 50 43 41 49 51 70 72 80 89 99 99 90 92 105 114 120 130 134 137 152 143 135 168
32 42 32 33 32 28 48 42 66 129 166 82 67 73 82 42 70 66 56 62 74 79 63 58 63 50 59 73 83 91 94 81 80 86 88 110 119 118 111 130 125 129 172 165
35 26 33 48 34 43 64 57 64 78 72 116 110 98 79 86 82 59 75 81 73 64 65 84 75 68 68 80 92 92 87 92 86 98 119 142 121 86 91 90 96 99 125 106
35 17 34 24 43 42 47 44 43 52 94 147 125 99 65 81 58 79 91 79 100 123 110 92 88 103 108 105 95 112 112 91 92 106 100 96 89 67 76 91 89 92 75 58
33 24 16 24 20 33 50 51 36 41 91 101 68 65 49 84 111 112 103 85 112 119 105 106 123 138 105 92 94 97 94 95 88 75 70 69 67 55 66 72 65 58 35 14
45 41 13 29 19 26 24 40 73 77 55 60 66 59 39 75 88 107 99 131 154 136 90 92 109 78 93 103 113 112 76 80 73 56 50 34 11 14 19 23 20 8 -16 -8
31 33 33 16 19 33 38 45 50 65 62 44 28 34 62 99 71 52 105 142 128 94 68 88 67 82 97 97 95 77 68 68 54 23 18 8 -3 -3 4 -9 -18 -13 4 6
29 33 20 39 49 49 35 34 53 60 57 50 38 46 55 62 55 87 105 95 92 112 100 77 74 88 90 94 82 73 53 46 32 5 -13 -10 -2 -2 3 4 9 11 19 21
19 17 31 16 90 85 76 58 47 43 51 40 38 37 51 46 52 71 65 59 71 54 63 57 66 68 77 75 67 60 44 26 6 -7 -16 -25 2 5 1 6 20 28 28 31
53 25 40 20 59 47 66 69 62 56 47 40 28 49 39 52 58 63 73 88 62 64 70 45 41 37 41 33 30 20 0 -4 -9 4 20 27 20 16 24 31 40 33 34 43
33 25 30 28 73 91 66 57 56 61 39 28 22 61 67 54 59 54 65 85 63 87 54 33 31 27 19 0 -19 -12 -7 12 26 24 33 54 68 50 55 44 39 53 52 56
48 61 87 98 143 102 78 63 56 53 60 33 20 38 88 67 61 67 53 93 65 63 52 33 33 15 -2 -27 -26 13 29 35 35 39 45 53 66 83 68 59 71 79 74 66
21 33 66 77 77 75 65 58 46 31 38 58 49 38 80 77 70 62 66 108 69 49 59 48 34 20 1 -9 12 41 40 41 44 47 51 55 64 67 61 47 55 58 56 56
107 102 86 68 95 99 87 65 44 38 39 55 64 54 66 99 74 76 90 93 61 82 65 58 48 40 38 21 41 48 58 61 54 56 57 60 71 72 69 64 57 51 43 55
143 137 122 112 116 96 73 47 34 31 43 58 67 71 66 109 92 79 101 122 108 107 94 85 74 48 72 68 77 88 92 79 73 80 77 79 84 82 73 72 67 72 75 58
150 142 122 82 93 101 74 47 43 67 59 64 71 70 64 61 98 90 117 139 160 157 123 105 107 101 121 128 117 112 100 92 94 93 91 99 91 88 84 76 72 66 65 64
106 81 96 90 86 79 74 64 50 46 50 54 57 70 68 67 86 128 140 116 123 131 138 142 128 169 185 163 146 135 136 122 102 106 102 97 97 92 85 83 76 70 67 75
122 91 72 70 71 54 45 49 51 52 55 63 59 43 54 64 84 130 143 124 140 149 145 157 191 224 212 210 183 169 161 141 136 119 112 111 105 100 99 90 82 78 74 78
90 79 70 64 60 52 45 39 50 49 41 44 38 19 33 64 79 118 153 151 145 144 141 215 242 244 246 236 237 214 185 163 143 133 124 111 113 112 110 94 88 84 83 86
51 54 60 70 70 66 68 68 65 45 46 36 32 34 24 51 82 114 147 135 140 130 164 197 267 265 251 238 245 271 248 223 195 145 147 122 118 120 106 82 86 89 91 96
4 3 14 22 30 45 64 69 65 56 55 49 48 54 59 55 73 88 107 87 91 124 132 155 232 258 279 285 284 283 253 232 212 181 183 146 115 121 106 96 99 102 101 107
-9 -15 -23 -24 -11 3 12 21 27 39 45 43 53 66 76 78 86 88 97 90 102 89 143 159 178 205 266 288 321 285 247 210 189 207 205 155 148 127 108 112 117 119 119 122
8 2 -5 -9 -15 -10 6 5 5 33 50 45 45 46 56 64 67 72 75 75 94 86 125 149 146 164 195 295 316 317 257 185 186 185 196 192 170 134 118 123 124 131 132 137
30 28 16 -2 -17 -12 -7 -2 10 6 34 61 36 35 43 51 56 58 53 66 54 68 97 115 114 129 179 260 293 304 254 193 196 182 185 159 177 141 111 121 130 137 144 123
35 21 22 20 15 2 0 -2 -2 2 11 11 36 47 32 20 22 26 30 30 31 36 57 53 56 80 156 208 215 212 192 162 156 134 165 181 179 148 125 133 137 147 151 136
49 41 24 12 10 8 7 12 17 21 30 26 23 30 33 14 18 19 17 19 24 22 45 52 49 64 119 134 142 148 137 112 106 122 158 158 160 156 146 147 151 148 144 121
25 13 26 24 33 32 31 33 40 38 38 43 59 52 42 20 13 15 15 18 25 30 49 55 57 67 109 121 120 135 133 137 129 181 219 209 207 202 200 184 168 161 136 119
Wind_Speed
30 30 33 36 38 34 41 42 44 41 43 26 1 8 45 22 23 27 32 36 38 37 36 35 36 36 35 35 35 35 35 36 36 34 34 34 35 37 38 39 39 39 40 44
37 35 37 44 42 41 35 39 46 40 38 18 8 11 19 27 21 30 35 36 36 36 35 33 34 34 32 32 32 33 35 34 33 32 31 32 33 35 35 38 39 40 44 45
35 35 41 48 47 40 38 34 30 39 41 31 19 22 19 30 31 35 35 35 33 33 33 32 32 31 31 29 30 32 33 32 30 31 31 31 31 31 33 35 36 40 43 44
36 36 43 30 31 26 25 25 25 40 31 20 28 32 35 35 37 36 34 33 32 31 29 31 30 29 28 27 28 29 30 28 28 29 27 27 26 28 32 35 36 39 42 43
34 35 40 36 32 28 20 34 31 26 31 42 34 40 42 35 38 29 28 30 29 26 26 27 26 27 25 25 25 25 26 26 25 24 24 24 25 27 32 35 36 40 41 42
31 35 36 31 29 28 31 31 28 18 29 29 32 37 37 28 29 28 28 26 28 26 25 23 25 22 22 23 22 23 23 22 21 21 23 23 25 28 32 34 37 38 40 41
42 40 40 31 26 30 33 29 22 28 35 34 40 40 29 25 29 27 26 26 27 24 22 19 21 20 20 20 18 18 18 19 20 21 23 25 27 29 32 34 35 37 39 40
39 42 45 28 29 36 24 22 26 28 29 31 29 30 30 29 25 23 24 26 25 22 20 21 20 18 17 14 13 14 16 19 21 23 24 25 27 29 30 31 33 35 36 38
34 39 33 24 26 25 30 28 29 27 29 31 30 33 30 29 25 23 22 23 23 20 19 19 21 16 12 11 9 13 16 18 20 22 23 24 25 26 27 29 31 33 34 36
39 38 29 26 24 30 32 27 27 28 28 30 34 30 29 26 23 23 20 19 20 17 18 18 16 12 9 12 15 16 16 16 18 19 21 23 25 25 27 29 31 32 34 36
45 46 39 36 28 23 30 31 31 35 36 35 36 30 28 25 23 23 22 19 16 14 16 14 12 10 9 14 17 15 14 14 15 17 20 23 26 28 28 31 32 30 35 37
41 35 32 30 24 31 35 36 39 43 44 38 39 32 26 24 21 17 16 14 15 15 12 10 9 10 11 11 11 10 11 12 13 16 18 20 23 28 31 31 33 34 36 38
44 34 35 34 34 35 39 42 44 47 47 46 41 36 24 25 19 16 14 11 12 10 9 7 8 10 9 6 5 6 7 8 10 12 15 17 19 22 26 29 32 33 35 38
30 36 42 43 40 41 44 47 48 49 47 44 42 36 28 22 19 15 12 10 9 7 6 5 6 8 8 7 6 5 4 5 7 10 13 15 17 20 22 26 30 31 31 36
30 32 41 45 47 50 49 51 53 54 50 46 42 43 36 26 22 17 13 7 7 3 4 3 3 7 7 9 12 9 5 3 5 11 13 15 18 21 24 26 29 32 34 34
31 35 42 47 48 48 50 53 53 54 50 51 49 46 46 43 27 18 10 7 5 4 6 9 7 5 6 5 6 3 2 1 7 10 13 15 15 17 22 25 29 31 32 34
42 47 46 48 51 51 52 55 57 58 58 58 58 54 51 50 43 27 19 11 8 8 9 11 11 8 9 8 8 6 5 6 7 10 11 14 17 19 21 23 27 29 32 34
45 47 49 53 55 58 58 56 58 60 62 63 63 59 57 54 52 38 26 23 17 14 13 13 17 17 15 15 14 11 9 10 11 11 12 14 17 20 23 23 26 29 32 34
42 46 49 52 54 55 55 55 56 60 64 66 68 69 63 61 57 50 37 34 24 18 18 15 16 19 20 19 19 19 18 16 16 16 14 16 19 20 24 23 26 29 30 34
41 44 47 49 51 52 55 55 57 60 61 62 64 66 66 59 54 49 44 43 33 34 26 17 16 19 21 22 23 25 25 23 20 19 19 20 20 23 26 24 27 30 31 34
34 38 41 44 46 47 48 51 54 56 58 57 57 56 56 52 47 45 47 52 48 38 30 19 18 20 21 21 24 27 27 25 24 23 21 22 25 28 28 27 28 29 31 35
34 37 41 43 44 44 45 47 49 51 52 51 51 50 49 48 47 47 47 51 46 38 34 29 24 20 23 23 25 27 28 27 25 24 25 26 29 30 29 27 28 28 32 35
39 42 44 45 46 46 46 47 48 48 48 48 49 49 49 48 47 50 54 47 45 40 41 38 33 24 22 23 27 28 28 29 26 25 28 29 29 28 28 26 28 31 34 37
41 44 47 49 48 48 49 50 50 48 46 46 46 46 45 45 46 43 46 48 47 44 39 37 32 25 22 25 25 27 28 29 28 28 29 26 26 25 24 25 29 32 34 36
44 47 48 51 50 51 51 51 51 49 48 47 46 46 45 43 41 43 44 44 42 40 35 28 22 15 16 20 18 19 20 22 20 18 19 20 21 21 23 26 30 33 34 36
43 45 49 52 52 54 54 54 53 52 52 52 50 50 48 45 45 46 44 44 41 41 33 29 25 15 13 12 11 12 13 13 14 15 16 18 20 24 27 29 31 32 35 37
48 50 53 53 50 55 55 55 54 54 54 54 55 53 54 51 49 47 46 44 40 38 31 27 23 14 11 10 10 9 11 14 15 17 20 23 25 27 29 31 31 33 38 40
Wind_Direction
294 290 285 275 270 268 263 265 263 265 266 268 223 291 254 293 292 288 288 290 290 294 299 308 312 319 319 322 325 328 332 333 333 333 337 339 343 350 356 0 2 4 6 6
289 292 289 273 274 272 274 275 271 278 278 313 297 315 308 299 303 294 293 295 297 298 303 310 313 318 319 323 328 333 334 333 334 338 342 343 351 356 2 4 6 8 5 10
297 304 292 282 277 273 274 281 273 270 273 293 308 304 314 298 297 297 299 301 301 304 305 310 314 320 321 324 329 331 333 336 340 338 338 346 357 4 11 14 17 16 16 21
296 301 283 306 309 303 286 297 289 274 287 289 297 298 297 297 297 300 304 304 308 310 314 312 315 321 324 324 330 339 341 342 338 342 358 4 11 16 23 23 22 26 28 30
298 294 293 297 301 299 302 293 286 282 283 278 291 290 291 304 302 312 313 314 316 323 321 317 318 322 326 328 336 345 345 348 355 9 15 19 22 22 29 32 30 35 36 37
298 289 288 300 300 288 285 296 300 286 282 288 291 293 299 310 318 320 325 329 329 327 326 320 317 326 329 336 341 347 349 5 14 19 25 34 36 38 40 37 36 38 39 40
269 274 274 292 289 273 285 289 308 283 275 282 280 288 316 324 320 325 330 334 333 330 328 330 321 325 334 336 344 3 8 22 33 41 43 47 47 44 43 43 40 38 36 35
269 267 266 300 288 273 302 317 312 308 304 302 316 318 320 320 325 330 335 338 336 333 330 327 323 331 349 360 8 24 38 47 57 57 52 51 49 43 42 37 35 34 33 28
280 273 296 317 312 313 302 314 318 326 318 315 323 322 326 322 325 324 335 336 339 338 336 341 323 335 24 36 34 52 60 64 58 60 61 55 46 44 34 33 31 32 28 25
284 289 304 312 323 316 314 324 323 323 331 323 319 335 337 330 326 318 335 345 338 355 347 348 355 3 19 66 76 78 72 67 64 54 44 37 35 29 25 23 25 28 21 18
280 282 298 298 310 327 320 322 317 308 309 313 318 331 340 338 328 315 320 343 347 351 344 1 17 26 54 88 93 85 75 64 52 47 45 33 15 11 19 11 19 28 15 11
290 304 308 317 322 316 314 315 311 302 299 310 304 321 333 338 337 332 334 353 348 345 0 22 40 71 90 94 90 79 77 69 61 51 46 31 16 8 13 14 14 20 14 7
291 311 311 312 315 316 312 308 306 300 301 298 301 306 321 328 337 342 341 353 353 357 14 50 77 100 103 94 61 81 84 64 47 41 35 26 23 22 14 13 11 13 13 7
320 310 302 306 307 309 307 304 302 300 300 301 298 300 307 322 331 329 343 356 5 22 36 81 114 123 122 110 102 101 82 66 48 25 19 19 24 21 17 8 7 7 13 8
317 320 313 308 305 302 303 301 296 294 296 298 299 292 295 305 315 318 320 346 353 30 102 127 172 162 153 139 133 126 113 71 19 355 360 4 9 9 6 4 2 4 6 7
313 316 313 307 307 308 304 299 295 293 295 293 293 293 288 288 301 312 310 292 263 238 209 174 179 223 220 218 172 168 133 2 337 342 348 357 11 14 6 1 358 359 1 3
302 303 305 306 304 305 304 301 294 292 291 290 286 288 288 284 286 293 297 291 241 256 251 236 234 233 226 229 204 216 252 288 309 324 337 341 346 352 360 0 355 355 357 359
301 300 303 304 304 301 299 300 297 293 289 285 285 284 284 282 280 285 288 293 286 269 244 250 261 252 248 249 247 249 254 272 289 303 321 333 337 343 347 352 352 351 352 355
306 302 302 304 306 303 301 301 301 297 290 285 282 279 281 280 279 281 285 285 284 268 256 250 237 246 252 251 250 258 264 269 279 292 304 318 327 332 337 343 345 346 350 351
311 311 310 311 306 304 301 303 301 298 295 291 288 282 279 279 280 280 280 280 282 290 287 260 234 243 250 253 251 261 264 269 274 284 295 305 315 322 327 335 338 341 344 346
335 334 330 321 313 310 309 308 305 301 298 297 294 290 287 284 283 283 281 280 285 288 288 273 245 245 248 244 248 258 259 264 271 277 286 297 305 314 321 328 332 337 340 342
336 335 334 331 325 323 321 318 313 308 304 301 299 297 294 292 288 285 286 285 289 287 287 284 280 256 252 244 253 253 256 259 265 276 285 293 301 309 315 322 327 332 335 339
330 329 329 325 319 317 319 323 322 318 312 309 306 303 298 296 294 289 286 291 292 290 289 289 285 273 256 254 256 256 254 257 260 272 283 292 300 307 313 319 324 328 331 335
334 335 329 317 310 319 318 314 318 322 318 313 313 314 313 309 305 306 299 296 295 295 295 294 290 278 264 269 262 260 259 259 264 274 284 292 300 307 312 318 322 328 330 334
330 326 332 326 325 317 316 314 315 316 307 302 306 309 311 319 317 311 307 306 304 304 305 306 304 289 278 281 270 260 255 256 262 267 282 291 300 305 311 317 321 325 329 333
339 338 331 324 322 318 316 315 316 317 318 309 305 304 312 323 312 302 304 301 304 305 315 316 317 315 304 299 283 267 254 253 261 272 284 292 299 305 311 315 320 324 328 333
325 324 323 321 324 318 317 314 314 312 311 309 305 305 305 311 315 315 311 314 320 321 328 327 327 327 317 307 295 274 266 271 272 283 292 298 302 307 311 315 320 324 326 329